Location: Culleoka
(33.1312°N, 96.4919°W)
Time: 13:31:42
(UTC+00:00)

Cosmos 1500 Rocket - Pass Details

Date: 03 July 2022
Orbit: 602 x 631 km, 82.5° (Epoch: 07 August)

Event Time Altitude Azimuth Distance (km) Brightness Sun altitude
Exits shadow 09:31:07 39° 191° (S) 939 4.0 -19.3°
Maximum altitude 09:32:44 84° 275° (W) 634 3.5 -19.0°
Drops below altitude 10° 09:37:13 10° 5° (N) 2,011 6.9 -18.4°
Sets 09:39:28 0° 6° (N) 2,925 7.8 -18.1°
